Walla Walla, WA

3:21 PM PDT on October 19, 2017 (GMT -0700)
Walla Walla Regional

Weather History for KALW - November, 2011

Change the Weather History Date:

Monday, November 21, 2011

  Actual Average Record
Temperature  
Mean Temperature 42 °F 40 °F  
Max Temperature 54 °F 46 °F 69 °F (1974)
Min Temperature 30 °F 34 °F 11 °F (1977)
Degree Days  
Heating Degree Days 23 25  
Month to date heating degree days 451  
Since 1 July heating degree days 916  
Cooling Degree Days 0 0  
Month to date cooling degree days 0  
Year to date cooling degree days 850  
Moisture  
Dew Point 30 °F    
Average Humidity 63    
Maximum Humidity 89    
Minimum Humidity 38    
Precipitation  
Precipitation 0.00 in 0.09 in 1.30 in (1992)
Month to date precipitation 2.02  
Year to date precipitation 17.53  
Snow  
Snow 0.00 in 0.10 in 3.30 in (1985)
Month to date snowfall 0.6  
Year to date snowfall 6.7  
Since 1 July snowfall 0.7  
Snow Depth -    
Sea Level Pressure  
Sea Level Pressure 29.88 in    
Wind  
Wind Speed 10 mph (SSE)    
Max Wind Speed 26 mph    
Max Gust Speed 39 mph    
Visibility 9 miles    
Events Rain    
T = Trace of Precipitation, MM = Missing Value Source: NWS Daily Summary

Daily Weather History Graph

Daily Weather History Graph

Search for Another Location

Airport or City:

Trip Planner

Search our weather history database for the weather conditions in past years. The results will help you decide how hot, cold, wet, or windy it might be!

Date:

Astronomy

Nov. 21, 2011 Rise Set
Actual Time 7:01 AM PST 4:15 PM PST
Civil Twilight 6:28 AM PST 4:48 PM PST
Nautical Twilight 5:52 AM PST 5:25 PM PST
Astronomical Twilight 5:16 AM PST 6:01 PM PST
Moon 2:34 AM PST (11/21) 1:50 PM PST (11/21)
Length of Visible Light 10h 19m
Length of Day
9h 13m
Waning Crescent, 16% of the Moon is Illuminated
Nov 21
Waning Crescent
Nov 24
New
Dec 2
First Quarter
Dec 10
Full
Dec 17
Last Quarter

Hourly Weather History & Observations

Time (PST) Temp. Windchill Dew Point Humidity Pressure Visibility Wind Dir Wind Speed Gust Speed Precip Events Conditions
12:06 AM 30.2 °F 24.3 °F 26.6 °F 86% 29.93 in 10.0 mi NNE 5.8 mph - N/A   Scattered Clouds
12:53 AM 30.2 °F 24.3 °F 26.6 °F 86% 29.91 in 10.0 mi NE 5.8 mph - N/A   Clear
1:53 AM 30.9 °F - 28.0 °F 89% 29.95 in 9.0 mi Calm Calm - N/A   Clear
2:53 AM 30.0 °F - 27.0 °F 88% 29.96 in 8.0 mi Calm Calm - N/A   Clear
4:53 AM 30.0 °F 25.2 °F 27.0 °F 88% 29.93 in 6.0 mi SSE 4.6 mph - N/A   Partly Cloudy
5:53 AM 30.0 °F - 27.0 °F 88% 29.90 in 7.0 mi Calm Calm - N/A   Partly Cloudy
6:53 AM 30.0 °F 26.5 °F 27.0 °F 88% 29.89 in 6.0 mi WNW 3.5 mph - N/A   Clear
7:53 AM 30.0 °F 25.2 °F 27.0 °F 88% 29.91 in 4.0 mi ESE 4.6 mph - N/A   Clear
8:53 AM 33.1 °F 30.0 °F 28.9 °F 85% 29.89 in 10.0 mi East 3.5 mph - N/A   Overcast
9:53 AM 41.0 °F 33.1 °F 30.0 °F 65% 29.89 in 10.0 mi SSE 15.0 mph - 0.00 in   Overcast
10:53 AM 48.0 °F - 30.9 °F 52% 29.87 in 10.0 mi South 13.8 mph 25.3 mph N/A   Overcast
11:53 AM 52.0 °F - 30.9 °F 45% 29.86 in 10.0 mi South 20.7 mph 28.8 mph N/A   Overcast
12:53 PM 53.1 °F - 32.0 °F 45% 29.86 in 10.0 mi South 16.1 mph 25.3 mph N/A   Overcast
1:53 PM 53.1 °F - 32.0 °F 45% 29.87 in 10.0 mi SSW 17.3 mph 24.2 mph N/A   Overcast
2:53 PM 51.1 °F - 33.1 °F 50% 29.89 in 10.0 mi South 13.8 mph 20.7 mph N/A   Overcast
3:53 PM 51.1 °F - 32.0 °F 48% 29.87 in 10.0 mi South 12.7 mph - N/A   Overcast
4:53 PM 52.0 °F - 30.0 °F 43% 29.85 in 10.0 mi SSE 20.7 mph - N/A   Mostly Cloudy
5:53 PM 54.0 °F - 28.9 °F 38% 29.84 in 10.0 mi SSE 23.0 mph 33.4 mph N/A   Mostly Cloudy
6:53 PM 52.0 °F - 30.0 °F 43% 29.84 in 10.0 mi SSE 25.3 mph 33.4 mph N/A   Overcast
7:53 PM 53.1 °F - 28.9 °F 40% 29.85 in 10.0 mi South 21.9 mph 33.4 mph N/A   Overcast
8:53 PM 53.1 °F - 30.0 °F 41% 29.84 in 10.0 mi South 21.9 mph 32.2 mph N/A   Overcast
9:53 PM 50.0 °F - 35.1 °F 57% 29.83 in 10.0 mi SSE 26.5 mph 32.2 mph 0.00 in Rain Light Rain
10:53 PM 50.0 °F - 35.1 °F 57% 29.80 in 10.0 mi SSE 25.3 mph 39.1 mph 0.00 in Rain Light Rain
11:53 PM 50.0 °F - 37.0 °F 61% 29.79 in 10.0 mi SSE 26.5 mph 35.7 mph 0.00 in Rain Light Rain